MAUNA LOA HI US current weather conditions

sailwx.info

Wind from 351 at 6 knots gusting 12

Air temperature 16.7° C
Dewpoint 14.5° C

Last reported at 2016-Oct-01 17:34 UTC.
Time now 2016-Oct-01 18:56 UTC

Location: N 19°28' W 155°22'.
View on Google Maps.

See reports from other nearby stations

  
Tides and Currents Weather Stations Pressure Air Temp Water Temp Dewpoint Dewpoint Depression Visibility Wind Speed Wind Dir Waves Ship Positions
date/time (UTC)wind fromknots sea level pressurealtimeterstation pressurevisibilityair tempwater tempwave heightnotes
2016-Oct-01 17:34 351 6 gusting 12 16.7
2016-Oct-01 16:34 344 6 gusting 11 13.9
2016-Oct-01 15:34 352 5 gusting 10 13.9
2016-Oct-01 14:34 325 6 gusting 10 13.9
2016-Oct-01 13:34 343 6 gusting 13 13.9
2016-Oct-01 12:34 352 3 gusting 9 13.3
2016-Oct-01 11:34 003 3 gusting 8 12.8
2016-Oct-01 10:34 301 4 gusting 9 13.9
2016-Oct-01 09:34 307 5 gusting 10 12.2
2016-Oct-01 08:34 349 5 gusting 12 13.3
2016-Oct-01 07:34 344 5 gusting 11 13.9
2016-Oct-01 06:34 353 6 gusting 17 13.9
2016-Oct-01 05:34 015 10 gusting 16 15.6
2016-Oct-01 04:34 336 6 gusting 13 16.7
2016-Oct-01 03:34 347 7 gusting 15 17.8
2016-Oct-01 02:34 011 8 gusting 18 20.6
2016-Oct-01 01:34 005 7 gusting 18 21.7
2016-Oct-01 00:34 026 11 gusting 18 22.2
2016-Sep-30 23:34 026 9 gusting 19 23.3
2016-Sep-30 22:34 021 9 gusting 18 23.9
2016-Sep-30 21:34 022 6 gusting 18 25.6
2016-Sep-30 20:34 169 5 gusting 12 24.4
2016-Sep-30 19:34 196 4 gusting 14 25.0
2016-Sep-30 18:34 340 7 gusting 15 21.1
2016-Sep-30 17:34 339 6 gusting 17 16.7
2016-Sep-30 16:34 322 7 gusting 13 12.2
2016-Sep-30 15:34 301 4 gusting 13 11.1
2016-Sep-30 14:34 322 6 gusting 13 8.9
2016-Sep-30 13:34 248 4 gusting 12 10.0
2016-Sep-30 12:34 020 7 gusting 13 12.8
2016-Sep-30 11:34 357 4 gusting 12 11.7
2016-Sep-30 10:34 349 6 gusting 13 13.9
2016-Sep-30 09:34 348 4 gusting 9 12.8
2016-Sep-30 08:34 354 5 gusting 8 13.3
2016-Sep-30 07:34 002 4 gusting 12 14.4
2016-Sep-30 06:34 027 4 gusting 10 14.4
2016-Sep-30 05:34 332 5 gusting 11 14.4
2016-Sep-30 04:34 322 2 gusting 12 14.4
2016-Sep-30 03:34 344 6 gusting 16 17.8
2016-Sep-30 02:34 015 9 gusting 19 20.6
2016-Sep-30 01:34 023 10 gusting 17 22.2
2016-Sep-30 00:34 025 9 gusting 19 22.8
2016-Sep-29 23:34 021 8 gusting 19 23.9
2016-Sep-29 22:34 036 9 gusting 16 24.4
2016-Sep-29 21:34 032 9 gusting 15 24.4
2016-Sep-29 20:34 029 7 gusting 13 25.0
2016-Sep-29 19:34 028 6 gusting 11 23.9
2016-Sep-29 18:34 039 5 gusting 10 22.8